| time (UTC) | temp F | wind direction | speed MPH | gust MPH | rain 1hr in | rain 24hr in | rain mn in | humidity % | barometer mb |
| 20260506101546 | 54 | 149 | 1.0 | 5.0 | 0.00 | 0.00 | 0.00 | 68 | 1019.5 |
| 20260506094543 | 53 | 165 | 0.0 | 2.0 | 0.00 | 0.00 | 0.00 | 72 | 1019.9 |
| 20260506093042 | 53 | 144 | 0.0 | 5.0 | 0.00 | 0.00 | 0.00 | 73 | 1019.9 |
| 20260506091542 | 53 | 229 | 0.0 | 7.0 | 0.00 | 0.00 | 0.00 | 72 | 1020.0 |
| 20260506090041 | 53 | 131 | 0.0 | 2.0 | 0.00 | 0.00 | 0.00 | 72 | 1020.1 |
| 20260506084542 | 53 | 126 | 0.0 | 5.0 | 0.00 | 0.00 | 0.00 | 71 | 1020.3 |
| 20260506083038 | 55 | 241 | 0.0 | 4.0 | 0.00 | 0.00 | 0.00 | 67 | 1020.6 |
| 20260506081536 | 55 | 269 | 0.0 | 7.0 | 0.00 | 0.00 | 0.00 | 66 | 1020.7 |
| 20260506073032 | 53 | 208 | 0.0 | 6.0 | 0.00 | 0.00 | 0.00 | 71 | 1020.9 |
| 20260506071532 | 51 | 296 | 1.0 | 4.0 | 0.00 | 0.00 | 0.00 | 77 | 1021.1 |
| 20260506061529 | 50 | 156 | 0.0 | 2.0 | 0.00 | 0.00 | 0.00 | 80 | 1021.1 |
| 20260506044530 | 51 | 192 | 0.0 | 2.0 | 0.00 | 0.00 | 0.00 | 78 | 1021.4 |
| 20260506043025 | 51 | 96 | 0.0 | 3.0 | 0.00 | 0.00 | 0.00 | 80 | 1021.4 |
| 20260506041522 | 49 | 171 | 0.0 | 2.0 | 0.00 | 0.00 | 0.00 | 84 | 1021.4 |
| 20260506040021 | 49 | 64 | 0.0 | 0.0 | 0.00 | 0.00 | 0.00 | 85 | 1021.5 |
| 20260506034520 | 49 | 6 | 0.0 | 0.0 | 0.00 | 0.00 | 0.00 | 84 | 1021.7 |
| 20260506033026 | 49 | 165 | 0.0 | 1.0 | 0.00 | 0.00 | 0.00 | 86 | 1021.7 |
| 20260506031528 | 48 | 153 | 0.0 | 1.0 | 0.00 | 0.00 | 0.00 | 87 | 1021.8 |
| 20260506030040 | 48 | 112 | 0.0 | 1.0 | 0.00 | 0.00 | 0.00 | 87 | 1021.7 |
| 20260506024524 | 48 | 148 | 2.0 | 5.0 | 0.00 | 0.00 | 0.00 | 88 | 1021.8 |
| 20260506023014 | 48 | 106 | 0.0 | 0.0 | 0.00 | 0.00 | 0.00 | 86 | 1021.8 |
| 20260506021512 | 49 | 162 | 0.0 | 3.0 | 0.00 | 0.00 | 0.00 | 84 | 1021.9 |
| 20260506020011 | 49 | 168 | 0.0 | 4.0 | 0.00 | 0.00 | 0.00 | 83 | 1022.1 |
| 20260506014511 | 50 | 150 | 1.0 | 3.0 | 0.00 | 0.00 | 0.00 | 80 | 1022.1 |
| 20260506013010 | 50 | 15 | 0.0 | 3.0 | 0.00 | 0.00 | 0.00 | 78 | 1022.5 |
| 20260506011509 | 49 | 162 | 0.0 | 3.0 | 0.00 | 0.00 | 0.00 | 82 | 1022.1 |
| 20260506010007 | 48 | 129 | 0.0 | 2.0 | 0.00 | 0.00 | 0.00 | 86 | 1022.2 |
| 20260506004519 | 48 | 228 | 1.0 | 3.0 | 0.00 | 0.00 | 0.00 | 84 | 1022.5 |
| 20260506003005 | 49 | 144 | 1.0 | 4.0 | 0.00 | 0.00 | 0.00 | 79 | 1022.6 |
| 20260506001504 | 50 | 177 | 0.0 | 2.0 | 0.00 | 0.00 | 0.00 | 76 | 1022.4 |
| 20260506000006 | 50 | 139 | 0.0 | 2.0 | 0.00 | 0.00 | 0.00 | 74 | 1022.4 |
| 20260505234503 | 51 | 160 | 1.0 | 3.0 | 0.00 | 0.00 | 0.00 | 71 | 1022.4 |
| 20260505233002 | 52 | 218 | 0.0 | 3.0 | 0.00 | 0.00 | 0.00 | 67 | 1022.4 |
| 20260505231600 | 52 | 89 | 0.0 | 2.0 | 0.00 | 0.00 | 0.00 | 66 | 1022.3 |
| 20260505230101 | 54 | 164 | 1.0 | 4.0 | 0.00 | 0.00 | 0.00 | 59 | 1022.6 |
| 20260505224558 | 55 | 203 | 0.0 | 6.0 | 0.00 | 0.00 | 0.00 | 58 | 1022.6 |
| 20260505223056 | 54 | 181 | 4.0 | 9.0 | 0.00 | 0.00 | 0.00 | 57 | 1022.5 |
| 20260505221601 | 55 | 77 | 1.0 | 7.0 | 0.00 | 0.00 | 0.00 | 57 | 1023.0 |
| 20260505220054 | 55 | 22 | 0.0 | 3.0 | 0.00 | 0.01 | 0.00 | 55 | 1023.1 |
| 20260505214550 | 53 | 51 | 1.0 | 6.0 | 0.00 | 0.01 | 0.00 | 56 | 1023.2 |
| 20260505213049 | 47 | 81 | 4.0 | 16.0 | 0.00 | 0.01 | 0.00 | 67 | 1023.3 |
| 20260505211547 | 44 | 134 | 0.0 | 1.0 | 0.00 | 0.01 | 0.00 | 73 | 1023.4 |
| 20260505210045 | 44 | 136 | 1.0 | 4.0 | 0.00 | 0.01 | 0.00 | 71 | 1023.1 |
| 20260505204544 | 42 | 137 | 0.0 | 4.0 | 0.00 | 0.01 | 0.00 | 73 | 1023.3 |
| 20260505203049 | 42 | 119 | 0.0 | 4.0 | 0.00 | 0.01 | 0.00 | 70 | 1023.2 |
| 20260505201546 | 41 | 101 | 0.0 | 2.0 | 0.00 | 0.01 | 0.00 | 70 | 1023.2 |
| 20260505200042 | 42 | 111 | 0.0 | 4.0 | 0.00 | 0.01 | 0.00 | 68 | 1023.1 |
| 20260505194548 | 42 | 173 | 0.0 | 5.0 | 0.00 | 0.01 | 0.00 | 68 | 1022.8 |
| 20260505193101 | 45 | 155 | 0.0 | 2.0 | 0.00 | 0.01 | 0.00 | 61 | 1022.5 |
| 20260505191542 | 48 | 165 | 0.0 | 3.0 | 0.00 | 0.01 | 0.00 | 54 | 1022.5 |
| 20260505190042 | 51 | 134 | 0.0 | 7.0 | 0.00 | 0.01 | 0.00 | 49 | 1022.3 |
| 20260505184539 | 50 | 102 | 1.0 | 11.0 | 0.00 | 0.01 | 0.00 | 48 | 1022.3 |
| 20260505183039 | 50 | 264 | 3.0 | 8.0 | 0.00 | 0.01 | 0.00 | 50 | 1022.1 |
| 20260505181537 | 47 | 142 | 0.0 | 5.0 | 0.00 | 0.01 | 0.00 | 56 | 1022.3 |
| 20260505180039 | 50 | 155 | 3.0 | 10.0 | 0.00 | 0.01 | 0.00 | 51 | 1022.4 |
| 20260505174532 | 47 | 135 | 4.0 | 9.0 | 0.00 | 0.01 | 0.00 | 57 | 1022.8 |
| 20260505173030 | 42 | 133 | 0.0 | 2.0 | 0.00 | 0.01 | 0.00 | 61 | 1023.0 |
| 20260505171529 | 45 | 295 | 0.0 | 3.0 | 0.00 | 0.01 | 0.00 | 54 | 1022.8 |
| 20260505170031 | 48 | 121 | 3.0 | 11.0 | 0.00 | 0.01 | 0.00 | 52 | 1022.8 |
| 20260505164526 | 44 | 193 | 5.0 | 11.0 | 0.00 | 0.01 | 0.00 | 58 | 1023.1 |
| 20260505163031 | 37 | 167 | 2.0 | 6.0 | 0.00 | 0.01 | 0.00 | 73 | 1023.1 |
| 20260505161524 | 38 | 168 | 1.0 | 4.0 | 0.00 | 0.01 | 0.00 | 71 | 1023.1 |
| 20260505153023 | 43 | 158 | 1.0 | 3.0 | 0.00 | 0.01 | 0.00 | 64 | 1023.8 |
| 20260505151519 | 45 | 113 | 1.0 | 3.0 | 0.00 | 0.01 | 0.00 | 58 | 1024.1 |
| 20260505124602 | 35 | 142 | 0.0 | 3.0 | 0.00 | 0.02 | 0.00 | 83 | 1025.5 |
| 20260505123107 | 34 | 141 | 0.0 | 1.0 | 0.00 | 0.02 | 0.00 | 86 | 1025.5 |
| 20260505121550 | 34 | 115 | 0.0 | 1.0 | 0.00 | 0.02 | 0.00 | 86 | 1025.5 |
| 20260505120055 | 34 | 110 | 0.0 | 0.0 | 0.00 | 0.02 | 0.02 | 86 | 1025.5 |
| 20260505114549 | 34 | 146 | 0.0 | 0.0 | 0.00 | 0.02 | 0.02 | 86 | 1025.7 |
| 20260505113050 | 35 | 148 | 0.0 | 2.0 | 0.00 | 0.02 | 0.02 | 86 | 1025.9 |
| 20260505111544 | 35 | 143 | 0.0 | 0.0 | 0.00 | 0.02 | 0.02 | 86 | 1026.0 |